CCM32A EBCI-LFKJ

Flight info

Callsign CCM32A
Flight time N/A
Altitude 35000
Route RITAX DCT JARNY DCT EPL DCT PENDU DCT VANAS DCT VEVAR DCT NIZ DCT DIVUL DCT LONSU
Aircraft A320/M-SDE3FGHIRWY/LB1

Departure

Time 2026-05-01 10:55
Airport Brussels South Charleroi Airport (EBCI)

Arrival

Time N/A
Airport Ajaccio Napoléon Bonaparte airport (LFKJ)
Time Latitude Longitude Altitude Speed Heading
2026-05-01 10:32 50.46809 4.46872 617 ft 0 kts 335°
2026-05-01 10:49 50.46802 4.46877 612 ft 4 kts 335°
2026-05-01 10:49 50.46779 4.46893 627 ft 2 kts 335°
2026-05-01 10:49 50.46760 4.46903 620 ft 4 kts 24°
2026-05-01 10:50 50.46746 4.46878 621 ft 4 kts 65°
2026-05-01 10:50 50.46741 4.46860 620 ft 0 kts 65°
2026-05-01 10:52 50.46741 4.46862 619 ft 1 kts 65°
2026-05-01 10:52 50.46753 4.46902 624 ft 6 kts 65°
2026-05-01 10:52 50.46782 4.47002 616 ft 17 kts 65°
2026-05-01 10:53 50.46835 4.47183 618 ft 19 kts 66°
2026-05-01 10:53 50.46891 4.47379 622 ft 20 kts 65°
2026-05-01 10:53 50.46943 4.47574 612 ft 15 kts 88°
2026-05-01 10:53 50.46878 4.47640 615 ft 12 kts 155°
2026-05-01 10:54 50.46799 4.47697 617 ft 12 kts 155°
2026-05-01 10:54 50.46734 4.47743 627 ft 10 kts 155°
2026-05-01 10:54 50.46695 4.47737 619 ft 9 kts 233°
2026-05-01 10:54 50.46658 4.47597 619 ft 22 kts 245°
2026-05-01 10:55 50.46566 4.47284 616 ft 72 kts 245°
2026-05-01 10:55 50.46132 4.45790 619 ft 150 kts 245°
2026-05-01 10:55 50.45817 4.44676 681 ft 173 kts 245°
2026-05-01 10:55 50.45340 4.42969 1377 ft 171 kts 242°
2026-05-01 10:56 50.44865 4.41281 2067 ft 171 kts 243°
2026-05-01 10:56 50.44377 4.39549 2706 ft 171 kts 241°
2026-05-01 10:56 50.43893 4.37867 3372 ft 170 kts 241°
2026-05-01 10:56 50.43400 4.36175 3935 ft 174 kts 243°
2026-05-01 10:57 50.42866 4.34349 4248 ft 195 kts 243°
2026-05-01 10:57 50.42266 4.32300 4453 ft 219 kts 243°
2026-05-01 10:57 50.41612 4.30050 5042 ft 230 kts 242°
2026-05-01 10:57 50.40759 4.27972 5764 ft 232 kts 222°
2026-05-01 10:58 50.39394 4.26626 6368 ft 240 kts 197°
2026-05-01 10:58 50.37675 4.26427 6729 ft 259 kts 167°
2026-05-01 10:58 50.36059 4.27767 7328 ft 270 kts 136°
2026-05-01 10:58 50.34916 4.30123 8121 ft 274 kts 128°
2026-05-01 10:59 50.33685 4.32425 8940 ft 277 kts 134°
2026-05-01 10:59 50.32341 4.34596 9791 ft 277 kts 137°
2026-05-01 10:59 50.30961 4.36679 10569 ft 282 kts 137°
2026-05-01 10:59 50.29482 4.38891 10826 ft 305 kts 137°
2026-05-01 11:00 50.27905 4.41281 11006 ft 328 kts 136°
2026-05-01 11:00 50.26229 4.43873 11195 ft 348 kts 136°
2026-05-01 11:00 50.24509 4.46588 11772 ft 354 kts 135°
2026-05-01 11:00 50.22771 4.49369 12437 ft 358 kts 135°
2026-05-01 11:01 50.21030 4.52165 13130 ft 361 kts 135°
2026-05-01 11:01 50.19291 4.54956 13823 ft 363 kts 135°
2026-05-01 11:01 50.17521 4.57786 14466 ft 366 kts 135°
2026-05-01 11:01 50.15732 4.60645 15050 ft 369 kts 135°
2026-05-01 11:02 50.13935 4.63519 15624 ft 372 kts 135°
2026-05-01 11:02 50.12119 4.66413 16195 ft 375 kts 135°
2026-05-01 11:02 50.10282 4.69335 16771 ft 378 kts 135°
2026-05-01 11:02 50.08437 4.72271 17320 ft 382 kts 135°
2026-05-01 11:03 50.06559 4.75257 17888 ft 386 kts 135°
2026-05-01 11:03 50.04691 4.78215 18431 ft 389 kts 135°
2026-05-01 11:03 50.02783 4.81227 18927 ft 392 kts 135°
2026-05-01 11:03 50.00858 4.84261 19395 ft 395 kts 135°
2026-05-01 11:04 49.98915 4.87320 19878 ft 398 kts 135°
2026-05-01 11:04 49.96961 4.90401 20342 ft 401 kts 135°
2026-05-01 11:04 49.95013 4.93466 20808 ft 403 kts 135°
2026-05-01 11:04 49.93028 4.96585 21275 ft 405 kts 135°
2026-05-01 11:05 49.91035 4.99715 21717 ft 408 kts 135°
2026-05-01 11:05 49.89054 5.02825 22099 ft 412 kts 134°
2026-05-01 11:05 49.87035 5.05991 22513 ft 413 kts 134°
2026-05-01 11:05 49.84994 5.09194 22898 ft 417 kts 134°
2026-05-01 11:06 49.82963 5.12377 23234 ft 420 kts 134°
2026-05-01 11:06 49.80887 5.15613 23636 ft 422 kts 134°
2026-05-01 11:06 49.78805 5.18855 24007 ft 424 kts 134°
2026-05-01 11:07 49.74624 5.25363 24647 ft 428 kts 134°
2026-05-01 11:07 49.72510 5.28645 24948 ft 430 kts 134°
2026-05-01 11:07 49.70428 5.31875 25294 ft 430 kts 134°
2026-05-01 11:07 49.68301 5.35171 25542 ft 434 kts 135°
2026-05-01 11:08 49.66162 5.38486 25839 ft 435 kts 134°
2026-05-01 11:08 49.64044 5.41764 26104 ft 437 kts 134°
2026-05-01 11:08 49.59690 5.48483 26529 ft 444 kts 134°
2026-05-01 11:09 49.57532 5.51816 26864 ft 443 kts 134°
2026-05-01 11:09 49.55344 5.55192 27110 ft 446 kts 134°
2026-05-01 11:09 49.53142 5.58580 27375 ft 446 kts 134°
2026-05-01 11:10 49.48741 5.65332 27876 ft 448 kts 134°
2026-05-01 11:10 49.46520 5.68730 28073 ft 451 kts 135°
2026-05-01 11:10 49.44298 5.72130 28361 ft 450 kts 134°
2026-05-01 11:10 49.42106 5.75478 28665 ft 450 kts 135°
2026-05-01 11:11 49.39884 5.78865 28954 ft 450 kts 135°
2026-05-01 11:11 49.37654 5.82266 29211 ft 451 kts 135°
2026-05-01 11:11 49.35428 5.85653 29522 ft 450 kts 134°
2026-05-01 11:11 49.33205 5.89026 29834 ft 450 kts 135°
2026-05-01 11:12 49.31006 5.92365 30137 ft 449 kts 134°
2026-05-01 11:12 49.28781 5.95740 30487 ft 447 kts 134°
2026-05-01 11:12 49.26574 5.99079 30813 ft 445 kts 135°
2026-05-01 11:12 49.24361 6.02400 31034 ft 446 kts 137°
2026-05-01 11:13 49.21909 6.05322 31263 ft 447 kts 147°
2026-05-01 11:13 49.19159 6.07542 31497 ft 447 kts 157°
2026-05-01 11:13 49.16224 6.08980 31772 ft 447 kts 167°
2026-05-01 11:13 49.13141 6.09626 32081 ft 447 kts 176°
2026-05-01 11:14 49.10029 6.09566 32394 ft 446 kts 181°
2026-05-01 11:14 49.06936 6.09413 32669 ft 445 kts 181°
2026-05-01 11:14 49.03828 6.09262 32936 ft 445 kts 181°
2026-05-01 11:14 49.00781 6.09115 33217 ft 443 kts 180°
2026-05-01 11:15 48.97695 6.08969 33513 ft 442 kts 180°
2026-05-01 11:15 48.94618 6.08832 33805 ft 441 kts 180°
2026-05-01 11:15 48.91554 6.08699 34087 ft 440 kts 180°
2026-05-01 11:15 48.88490 6.08564 34375 ft 439 kts 181°
2026-05-01 11:16 48.85442 6.08423 34622 ft 438 kts 181°
2026-05-01 11:16 48.82433 6.08279 34850 ft 437 kts 181°
2026-05-01 11:16 48.79374 6.08131 35074 ft 437 kts 181°
2026-05-01 11:16 48.76370 6.07987 35248 ft 437 kts 181°
2026-05-01 11:17 48.70239 6.07705 35302 ft 440 kts 181°
2026-05-01 11:17 48.64121 6.07429 35301 ft 441 kts 181°
2026-05-01 11:18 48.58012 6.07151 35301 ft 441 kts 181°
2026-05-01 11:18 48.51842 6.06861 35301 ft 443 kts 181°
2026-05-01 11:19 48.45655 6.06572 35303 ft 444 kts 181°
2026-05-01 11:19 48.39515 6.06291 35308 ft 444 kts 181°
2026-05-01 11:20 48.33319 6.06012 35311 ft 444 kts 181°
2026-05-01 11:20 48.27166 6.05766 35312 ft 444 kts 180°
2026-05-01 11:21 48.20976 6.05610 35311 ft 443 kts 180°
2026-05-01 11:21 48.14841 6.05467 35310 ft 443 kts 180°
2026-05-01 11:22 48.08682 6.05293 35308 ft 442 kts 180°
2026-05-01 11:22 48.02542 6.05116 35306 ft 442 kts 180°
2026-05-01 11:23 47.96391 6.04947 35300 ft 442 kts 180°
2026-05-01 11:23 47.90246 6.04777 35298 ft 441 kts 180°
2026-05-01 11:24 47.84115 6.04603 35294 ft 441 kts 180°
2026-05-01 11:25 47.74906 6.04346 35285 ft 441 kts 180°
2026-05-01 11:25 47.65710 6.04099 35283 ft 440 kts 180°
2026-05-01 11:26 47.56510 6.03849 35292 ft 440 kts 180°
2026-05-01 11:27 47.50413 6.03677 35288 ft 439 kts 180°
2026-05-01 11:27 47.44281 6.03520 35288 ft 439 kts 180°
2026-05-01 11:28 47.38193 6.03359 35288 ft 438 kts 180°
2026-05-01 11:28 47.32143 6.04327 35288 ft 437 kts 165°
2026-05-01 11:29 47.23342 6.07762 35287 ft 437 kts 165°
2026-05-01 11:30 47.14518 6.11209 35286 ft 436 kts 165°
2026-05-01 11:30 47.08678 6.13470 35281 ft 436 kts 165°
2026-05-01 11:31 47.02787 6.15753 35277 ft 436 kts 165°
2026-05-01 11:31 46.96948 6.18008 35265 ft 438 kts 165°
2026-05-01 11:32 46.91046 6.20279 35257 ft 439 kts 165°
2026-05-01 11:32 46.85106 6.22557 35274 ft 440 kts 165°
2026-05-01 11:33 46.79195 6.24817 35275 ft 441 kts 166°
2026-05-01 11:33 46.73283 6.27086 35283 ft 441 kts 166°
2026-05-01 11:34 46.67344 6.29364 35287 ft 441 kts 166°